DW6801 Weather Reports


time (UTC)temp
C
wind
direction
speed
KPH
gust
KPH
rain 1hr
cm
rain 24hr
cm
rain mn
cm
humidity
%
barometer
mb
20260905115012 17 246 29.0 43.5 0.00 2.34 0.38 71 1007.2
20260905114518 17 260 24.1 45.1 0.00 2.36 0.38 70 1007.3
20260905114011 17 259 29.0 45.1 0.00 2.39 0.38 71 1007.2
20260905113516 17 261 22.5 41.8 0.00 2.41 0.38 71 1007.2
20260905113028 17 296 24.1 43.5 0.00 2.41 0.38 71 1007.1
20260905112516 17 227 24.1 43.5 0.00 2.44 0.38 69 1007.1
20260905112016 17 252 11.3 32.2 0.00 2.44 0.38 72 1007.1
20260905111558 17 255 16.1 32.2 0.00 2.44 0.38 72 1007.0
20260905111014 18 221 17.7 32.2 0.00 2.46 0.38 71 1007.1
20260905110521 17 213 14.5 32.2 0.00 2.46 0.38 71 1007.0
20260905110019 17 274 12.9 41.8 0.00 2.46 0.38 71 1007.0
20260905105510 17 268 22.5 40.2 0.00 2.49 0.38 72 1007.0
20260905105011 17 223 16.1 41.8 0.00 2.51 0.38 71 1006.9
20260905104523 18 291 24.1 38.6 0.00 2.51 0.38 69 1007.0
20260905104015 17 246 20.9 35.4 0.00 2.54 0.38 70 1006.9
20260905103518 17 247 19.3 35.4 0.00 2.54 0.38 70 1006.8
20260905103031 17 253 16.1 32.2 0.00 2.54 0.38 73 1006.6
20260905102517 17 295 20.9 35.4 0.00 2.54 0.38 69 1006.6
20260905102015 17 265 17.7 35.4 0.00 2.54 0.38 71 1006.5
20260905101508 17 238 19.3 41.8 0.00 2.54 0.38 73 1006.6
20260905101006 17 292 24.1 48.3 0.00 2.54 0.38 71 1006.4
20260905100506 17 244 19.3 48.3 0.00 2.54 0.38 72 1006.5
20260905100010 17 269 24.1 45.1 0.00 2.54 0.38 69 1006.5
20260905095508 17 262 24.1 45.1 0.00 2.54 0.38 70 1006.5
20260905095012 17 244 19.3 37.0 0.00 2.57 0.38 73 1006.5
20260905094504 17 267 24.1 37.0 0.00 2.57 0.38 71 1006.4
20260905094005 17 250 19.3 33.8 0.00 2.59 0.38 73 1006.2
20260905093504 17 223 12.9 48.3 0.00 2.59 0.38 76 1006.2
20260905093004 17 269 16.1 48.3 0.00 2.62 0.38 73 1006.2
20260905092507 17 192 22.5 46.7 0.00 2.62 0.38 71 1006.1
20260905092006 17 244 24.1 46.7 0.00 2.62 0.38 73 1006.1
20260905091510 17 251 25.7 40.2 0.00 2.62 0.38 72 1006.2
20260905091008 17 239 19.3 35.4 0.00 2.62 0.38 72 1006.1
20260905090508 17 254 22.5 40.2 0.00 2.62 0.38 74 1006.1
20260905090010 16 288 22.5 40.2 0.00 2.62 0.38 74 1006.1
20260905085508 16 234 19.3 37.0 0.00 2.62 0.38 75 1006.1
20260905085004 16 248 24.1 38.6 0.00 2.62 0.38 76 1006.0
20260905084504 16 250 25.7 40.2 0.00 2.62 0.38 75 1006.0
20260905084003 16 240 22.5 40.2 0.00 2.62 0.38 75 1006.0
20260905083507 16 248 14.5 38.6 0.00 2.62 0.38 78 1005.9
20260905083009 17 239 19.3 33.8 0.00 2.62 0.38 78 1005.9
20260905082506 16 265 20.9 32.2 0.00 2.62 0.38 77 1005.8
20260905082007 16 257 19.3 32.2 0.00 2.62 0.38 80 1005.8
20260905081512 16 257 17.7 30.6 0.00 2.62 0.38 77 1005.8
20260905081010 16 244 19.3 40.2 0.00 2.62 0.38 78 1005.6
20260905080511 16 261 24.1 40.2 0.00 2.62 0.38 77 1005.7
20260905080015 16 243 20.9 45.1 0.00 2.62 0.38 81 1005.7
20260905075509 15 236 24.1 45.1 0.00 2.62 0.38 80 1005.7
20260905075006 16 269 20.9 30.6 0.00 2.62 0.38 79 1005.7
20260905074507 16 257 14.5 27.4 0.00 2.62 0.38 79 1005.6
20260905074004 16 244 14.5 27.4 0.00 2.62 0.38 81 1005.5
20260905073507 15 249 16.1 30.6 0.00 2.62 0.38 83 1005.4
20260905073008 15 282 16.1 30.6 0.00 2.62 0.38 83 1005.5
20260905072509 15 263 12.9 29.0 0.00 2.62 0.38 82 1005.4
20260905072010 15 267 16.1 24.1 0.00 2.62 0.38 82 1005.5
20260905071514 15 244 12.9 40.2 0.00 2.62 0.38 82 1005.3
20260905071011 15 256 14.5 40.2 0.00 2.62 0.38 81 1005.2
20260905070508 15 222 20.9 35.4 0.00 2.62 0.38 82 1005.2
20260905070025 15 252 24.1 35.4 0.00 2.62 0.38 82 1005.1
20260905065503 15 277 20.9 33.8 0.00 2.62 0.38 83 1005.1
20260905065005 15 239 16.1 38.6 0.00 2.62 0.38 84 1005.1
20260905064516 15 252 19.3 37.0 0.00 2.62 0.38 85 1005.1
20260905064003 14 299 20.9 33.8 0.00 2.62 0.38 85 1005.0
20260905063507 15 247 16.1 25.7 0.00 2.62 0.38 85 1005.1
20260905063014 15 258 17.7 25.7 0.00 2.62 0.38 84 1005.0
20260905062509 15 294 14.5 25.7 0.00 2.62 0.38 85 1005.0
20260905062010 14 244 12.9 29.0 0.00 2.62 0.38 86 1004.9
20260905061518 14 284 12.9 30.6 0.00 2.62 0.38 85 1004.9
20260905061010 14 248 20.9 30.6 0.00 2.62 0.38 85 1004.9
20260905060511 14 263 14.5 24.1 0.00 2.62 0.38 85 1004.7
20260905060022 14 267 16.1 24.1 0.00 2.62 0.38 85 1004.8
20260905055503 13 246 12.9 27.4 0.00 2.62 0.38 86 1004.7
20260905055006 13 267 17.7 29.0 0.00 2.62 0.38 86 1004.7
20260905054510 13 259 16.1 29.0 0.00 2.62 0.38 86 1004.7
20260905054010 13 268 16.1 29.0 0.00 2.62 0.38 87 1004.7
20260905053508 13 270 12.9 27.4 0.00 2.62 0.38 87 1004.6
20260905053016 13 288 14.5 32.2 0.00 2.62 0.38 87 1004.6
20260905052513 13 225 12.9 32.2 0.00 2.62 0.38 88 1004.5
20260905052010 13 272 12.9 29.0 0.00 2.62 0.38 88 1004.5
20260905051529 13 278 14.5 29.0 0.00 2.62 0.38 88 1004.4
20260905051013 13 245 14.5 29.0 0.00 2.62 0.38 88 1004.4
20260905050510 13 263 14.5 32.2 0.00 2.62 0.38 89 1004.4
20260905050018 13 247 12.9 32.2 0.00 2.62 0.38 89 1004.2
20260905045503 13 244 16.1 32.2 0.00 2.62 0.38 89 1004.1
20260905045005 13 274 16.1 32.2 0.00 2.62 0.38 89 1004.1
20260905044510 13 261 12.9 32.2 0.00 2.62 0.38 89 1004.0
20260905044010 13 307 17.7 32.2 0.00 2.62 0.38 89 1003.9
20260905043513 13 229 12.9 32.2 0.00 2.62 0.38 89 1003.9
20260905043023 13 229 14.5 32.2 0.00 2.62 0.38 89 1003.8
20260905042513 13 204 17.7 30.6 0.00 2.62 0.38 89 1003.7
20260905042013 13 275 19.3 32.2 0.00 2.62 0.38 89 1003.7
20260905041518 13 255 17.7 32.2 0.00 2.62 0.38 88 1003.7
20260905041014 13 275 16.1 27.4 0.00 2.62 0.38 88 1003.7
20260905040510 13 263 17.7 27.4 0.00 2.62 0.38 88 1003.5
20260905040015 13 256 14.5 25.7 0.00 2.62 0.38 89 1003.5
20260905035507 13 273 16.1 27.4 0.00 2.62 0.38 89 1003.5
20260905035006 13 292 14.5 27.4 0.00 2.62 0.38 88 1003.5
20260905034523 13 259 16.1 25.7 0.00 2.62 0.38 88 1003.5
20260905034015 13 265 14.5 37.0 0.00 2.62 0.38 88 1003.5
20260905033510 13 252 16.1 37.0 0.00 2.62 0.38 88 1003.5
20260905033027 13 286 16.1 30.6 0.00 2.62 0.38 88 1003.4
20260905032518 12 255 11.3 27.4 0.00 2.62 0.38 88 1003.4
20260905032017 12 270 14.5 38.6 0.00 2.62 0.38 88 1003.3
20260905031523 12 304 17.7 38.6 0.00 2.62 0.38 89 1003.2
20260905031013 12 274 14.5 30.6 0.00 2.62 0.38 89 1003.2
20260905030511 12 264 19.3 29.0 0.00 2.62 0.38 89 1003.2
20260905030008 12 213 14.5 24.1 0.00 2.62 0.38 89 1003.2
20260905025507 12 288 12.9 30.6 0.00 2.62 0.38 89 1003.2
20260905025007 12 257 9.7 30.6 0.00 2.62 0.38 89 1003.1
20260905024515 12 248 17.7 27.4 0.00 2.62 0.38 89 1003.0
20260905024012 12 246 12.9 27.4 0.00 2.62 0.38 89 1002.9
20260905023514 13 262 16.1 30.6 0.00 2.62 0.38 89 1002.9
20260905023026 13 258 14.5 30.6 0.00 2.62 0.38 89 1002.8
20260905022514 13 288 17.7 30.6 0.00 2.62 0.38 89 1002.9
20260905022014 13 267 16.1 30.6 0.00 2.62 0.38 89 1002.8
20260905021535 13 239 14.5 33.8 0.00 2.62 0.38 90 1002.7
20260905021012 13 273 16.1 35.4 0.00 2.62 0.38 90 1002.7
20260905020506 13 246 20.9 35.4 0.00 2.62 0.38 91 1002.5
20260905020013 13 234 17.7 32.2 0.00 2.62 0.38 91 1002.4
20260905015510 13 288 11.3 33.8 0.00 2.62 0.38 91 1002.4
20260905015011 13 253 20.9 33.8 0.00 2.62 0.38 91 1002.4
20260905014519 13 261 14.5 27.4 0.00 2.62 0.38 91 1002.3
20260905014010 13 233 14.5 24.1 0.00 2.62 0.38 91 1002.2
20260905013514 13 227 11.3 24.1 0.00 2.62 0.36 92 1002.2
20260905013025 13 250 16.1 30.6 0.00 2.62 0.36 92 1002.1
20260905012515 13 254 14.5 33.8 0.00 2.62 0.36 92 1002.1
20260905012017 13 272 14.5 33.8 0.23 2.62 0.36 92 1002.1
20260905011526 13 257 11.3 24.1 0.23 2.62 0.36 92 1002.0
20260905011016 13 267 14.5 29.0 0.36 2.62 0.36 92 1001.9
20260905010508 13 275 12.9 29.0 0.36 2.62 0.36 92 1001.9
20260905010016 13 261 16.1 27.4 0.36 2.62 0.36 92 1002.0
20260905005511 13 264 16.1 37.0 0.36 2.62 0.36 92 1002.0
20260905005012 13 280 14.5 37.0 0.36 2.62 0.36 91 1001.9
20260905004524 13 276 17.7 32.2 0.36 2.62 0.36 92 1001.9
20260905004015 13 259 19.3 32.2 0.36 2.62 0.36 92 1001.8
20260905003517 13 237 11.3 24.1 0.36 2.62 0.36 92 1001.7
20260905003034 13 295 8.0 19.3 0.36 2.62 0.36 92 1001.7
20260905002516 13 267 6.4 19.3 0.36 2.59 0.36 91 1001.6
20260905002014 13 246 14.5 20.9 0.13 2.36 0.13 91 1001.5
20260905001530 13 275 11.3 20.9 0.13 2.36 0.13 90 1001.5
20260905001014 13 246 9.7 19.3 0.00 2.24 0.00 90 1001.7
20260905000508 13 219 9.7 19.3 0.00 2.24 0.00 90 1001.5
20260905000016 13 261 8.0 17.7 0.00 2.24 0.00 90 1001.6
20260904235511 13 275 8.0 22.5 0.00 2.24 0.00 90 1001.5
20260904235012 13 250 12.9 22.5 0.00 2.24 0.00 90 1001.5
20260904234527 13 253 12.9 22.5 0.00 2.24 0.00 89 1001.5
20260904234016 13 291 14.5 22.5 0.00 2.24 0.00 89 1001.4
20260904233514 13 260 12.9 25.7 0.00 2.24 0.00 89 1001.4
20260904233030 13 285 12.9 27.4 0.00 2.24 0.00 89 1001.4
20260904232517 13 236 16.1 27.4 0.00 2.24 0.00 89 1001.3
20260904232016 13 261 14.5 24.1 0.00 2.24 0.00 89 1001.4
20260904231530 13 268 12.9 25.7 0.00 2.24 0.00 89 1001.4
20260904231007 13 267 12.9 29.0 0.00 2.24 0.00 1001.3
20260904230510 13 255 16.1 29.0 0.00 2.24 0.00 89 1001.4
20260904230019 13 250 14.5 29.0 0.00 2.24 0.00 89 1001.3
20260904225511 13 250 14.5 29.0 0.00 2.24 0.00 89 1001.3
20260904225017 13 294 12.9 45.1 0.00 2.24 0.00 89 1001.4
20260904224528 13 260 16.1 45.1 0.00 2.24 0.00 89 1001.3
20260904224017 13 298 22.5 46.7 0.00 2.24 0.00 89 1001.3
20260904223517 13 292 22.5 46.7 0.00 2.24 0.00 90 1001.2
20260904223037 13 309 16.1 30.6 0.00 2.24 0.00 90 1001.2
20260904222519 13 238 14.5 38.6 0.00 2.24 0.00 90 1001.2
20260904222017 13 280 17.7 38.6 0.00 2.24 0.00 90 1001.1
20260904221534 13 273 20.9 38.6 0.00 2.24 0.00 90 1000.9
20260904221012 13 259 24.1 38.6 0.00 2.24 0.00 90 1000.9
20260904220511 13 272 16.1 35.4 0.00 2.24 0.00 90 1000.9
20260904220027 13 281 14.5 32.2 0.00 2.24 0.00 90 1000.9
20260904215503 13 260 17.7 32.2 0.00 2.24 2.24 90 1000.8
20260904215005 13 244 16.1 33.8 0.00 2.24 2.24 90 1000.8
20260904214508 13 269 19.3 33.8 0.00 2.24 2.24 90 1000.8
20260904214010 13 259 14.5 32.2 0.00 2.24 2.24 91 1000.8
20260904213510 13 243 16.1 29.0 0.00 2.24 2.24 91 1000.7
20260904213016 13 255 16.1 30.6 0.00 2.24 2.24 91 1000.7
20260904212512 13 248 16.1 32.2 0.00 2.24 2.24 91 1000.6
20260904212011 13 306 12.9 32.2 0.00 2.24 2.24 92 1000.6
20260904211533 13 302 14.5 27.4 0.00 2.24 2.24 92 1000.5
20260904211003 13 225 11.3 29.0 0.00 2.24 2.24 92 1000.5
20260904210504 13 240 14.5 29.0 0.00 2.24 2.24 92 1000.5
20260904210006 13 269 9.7 38.6 0.00 2.24 2.24 92 1000.5
20260904205501 13 266 19.3 38.6 0.00 2.24 2.24 92 1000.5
20260904205005 13 247 12.9 27.4 0.00 2.24 2.24 1000.5
20260904204507 13 241 16.1 33.8 0.00 2.24 2.24 1000.3
20260904204010 13 284 19.3 33.8 0.00 2.24 2.24 1000.3
20260904203510 13 241 17.7 32.2 0.00 2.24 2.24 1000.4
20260904203027 13 273 9.7 32.2 0.00 2.24 2.24 94 1000.3
20260904202509 13 250 12.9 29.0 0.00 2.24 2.24 94 1000.3
20260904202013 13 262 9.7 24.1 0.03 2.24 2.24 94 1000.2
20260904201530 13 235 9.7 25.7 0.08 2.24 2.24 93 1000.2
20260904201005 13 269 9.7 27.4 0.13 2.24 2.24 93 1000.2
20260904200504 13 275 16.1 27.4 0.20 2.24 2.24 93 1000.1
20260904200008 13 275 14.5 25.7 0.25 2.24 2.24 93 1000.2
20260904195507 13 244 17.7 29.0 0.33 2.24 2.24 93 1000.1
20260904195004 13 273 14.5 29.0 0.36 2.24 2.24 93 1000.0
20260904194525 13 239 16.1 27.4 0.36 2.24 2.24 93 1000.0
20260904194011 13 268 14.5 24.1 0.36 2.24 2.24 93 1000.0
20260904193512 13 258 16.1 24.1 0.36 2.24 2.24 93 999.8
20260904193034 13 267 12.9 19.3 0.36 2.24 2.24 93 999.8
20260904192514 13 254 12.9 19.3 0.36 2.21 2.21 93 999.7
20260904192014 13 267 14.5 19.3 0.33 2.18 2.18 93 999.6
20260904191528 13 260 8.0 22.5 0.28 2.16 2.16 93 999.6
20260904191003 13 257 9.7 22.5 0.23 2.08 2.08 93 999.6
20260904190503 14 252 12.9 20.9 0.15 2.01 2.01 93 999.7
20260904190011 14 213 11.3 16.1 0.10 1.96 1.96 93 999.6
20260904185506 14 236 8.0 12.9 0.03 1.88 1.88 93 999.5
20260904185008 14 250 6.4 12.9 0.00 1.88 1.88 93 999.4
20260904184514 14 252 6.4 11.3 0.00 1.88 1.88 93 999.3
20260904184012 14 240 6.4 9.7 0.00 1.88 1.88 93 999.3
20260904183514 14 219 4.8 16.1 0.00 1.88 1.88 93 999.3
20260904183023 14 242 6.4 16.1 0.00 1.85 1.85 93 999.3
20260904182513 14 257 9.7 14.5 0.00 1.85 1.85 93 999.4
20260904182020 14 248 6.4 14.5 0.00 1.85 1.85 93 999.4
20260904181506 14 252 6.4 14.5 0.00 1.85 1.85 93 999.4
20260904181003 14 237 8.0 16.1 0.00 1.85 1.85 92 999.3
20260904180508 14 246 9.7 17.7 0.00 1.85 1.85 92 999.3
20260904180008 14 235 11.3 19.3 0.00 1.85 1.85 92 999.3
20260904175508 14 247 12.9 19.3 0.00 1.85 1.85 92 999.5
20260904175008 14 254 8.0 16.1 0.00 1.85 1.85 92 999.3
20260904174516 14 244 8.0 16.1 0.00 1.85 1.85 92 999.3
20260904174011 14 252 8.0 19.3 0.00 1.85 1.85 92 999.4
20260904173514 15 250 11.3 19.3 0.00 1.85 1.85 92 999.5
20260904173035 15 252 12.9 17.7 0.00 1.85 1.85 93 999.5
20260904172514 15 227 8.0 16.1 0.00 1.85 1.85 93 999.5
20260904172016 15 245 9.7 12.9 0.00 1.85 1.85 93 999.5
20260904171504 15 236 8.0 14.5 0.00 1.85 1.85 93 999.5
20260904171004 15 262 6.4 14.5 0.00 1.85 1.85 92 999.3
20260904170506 15 244 9.7 17.7 0.00 1.85 1.85 92 999.3
20260904170009 15 250 9.7 17.7 0.00 1.85 1.85 92 999.2
20260904165508 15 265 3.2 12.9 0.00 1.85 1.85 92 999.1
20260904165012 15 254 8.0 16.1 0.00 1.85 1.85 92 999.1
20260904164518 15 246 11.3 16.1 0.00 1.85 1.85 92 999.1
20260904164017 15 246 9.7 12.9 0.00 1.85 1.85 92 999.3
20260904163512 15 225 8.0 17.7 0.00 1.85 1.85 92 999.3
20260904163027 15 227 9.7 17.7 0.00 1.85 1.85 92 999.4
20260904162517 15 249 9.7 20.9 0.00 1.85 1.85 91 999.4
20260904162007 15 211 12.9 20.9 0.00 1.85 1.85 92 999.5
20260904161506 15 236 9.7 19.3 0.00 1.85 1.85 91 999.4
20260904161008 15 253 8.0 14.5 0.00 1.85 1.85 92 999.4
20260904160510 15 226 8.0 16.1 0.00 1.85 1.85 92 999.3
20260904160016 15 258 8.0 16.1 0.00 1.85 1.85 92 999.4
20260904155512 15 246 8.0 17.7 0.00 1.85 1.85 92 999.4
20260904155012 15 261 8.0 17.7 0.00 1.85 1.85 92 999.5
20260904154522 15 255 9.7 12.9 0.00 1.85 1.85 92 999.5
20260904154015 15 303 8.0 14.5 0.00 1.85 1.85 92 999.5
20260904153517 15 248 9.7 14.5 0.00 1.85 1.85 92 999.5
20260904153028 15 243 11.3 14.5 0.00 1.85 1.85 92 999.5
20260904152515 15 258 6.4 17.7 0.00 1.85 1.85 92 999.4
20260904152005 15 258 8.0 17.7 0.00 1.85 1.85 91 999.4
20260904151512 15 260 8.0 20.9 0.00 1.85 1.85 91 999.4
20260904151010 15 249 12.9 20.9 0.00 1.85 1.85 90 999.5
20260904150508 15 244 16.1 20.9 0.00 1.85 1.85 90 999.5
20260904150017 16 256 12.9 20.9 0.03 1.85 1.85 89 999.6
20260904145513 16 299 9.7 22.5 0.05 1.85 1.85 90 999.5
20260904145012 16 255 17.7 22.5 0.05 1.88 1.85 90 999.4
20260904144526 16 258 9.7 22.5 0.05 2.06 1.85 91 999.4
20260904144014 16 234 14.5 22.5 0.05 2.06 1.85 93 999.4
20260904143515 15 244 12.9 17.7 0.08 2.06 1.85 93 999.4
20260904143033 15 250 8.0 11.3 0.33 2.06 1.85 93 999.3
20260904142506 15 251 4.8 11.3 0.38 2.06 1.85 94 999.5
20260904142009 15 242 8.0 12.9 0.43 2.06 1.85 94 999.5
20260904141511 14 252 6.4 12.9 0.46 2.06 1.83 93 999.7
20260904141012 14 258 4.8 14.5 0.56 2.06 1.83 93 999.7
20260904140510 14 281 8.0 19.3 0.81 2.06 1.83 93 999.8
20260904140020 14 281 11.3 19.3 0.99 2.03 1.80 93 999.7
20260904135515 15 232 14.5 19.3 1.12 2.01 1.78 93 999.7
20260904135020 15 235 8.0 17.7 1.19 2.01 1.78 94 999.8
20260904134526 15 229 11.3 17.7 1.27 2.01 1.78 94 999.8
20260904134015 15 259 6.4 17.7 1.30 2.01 1.78 94 999.6
20260904133515 15 284 4.8 16.1 1.30 1.96 1.75 93 999.6
20260904133030 15 254 11.3 16.1 1.04 1.73 1.50 93 999.7
20260904132508 15 266 4.8 11.3 1.02 1.68 1.45 93 999.6
20260904132010 15 256 4.8 14.5 1.02 1.63 1.40 93 999.6
20260904131514 15 271 6.4 14.5 0.97 1.57 1.35 93 999.7
20260904131011 15 251 6.4 16.1 0.94 1.50 1.27 93 999.8
20260904130513 15 281 6.4 16.1 0.69 1.22 1.02 93 1000.0
20260904130026 15 258 9.7 16.1 0.51 1.02 0.81 93 1000.0
20260904125516 15 236 6.4 9.7 0.38 0.89 0.66 93 999.9
20260904125015 15 226 1.6 11.3 0.30 0.81 0.58 93 999.8
20260904124528 15 246 4.8 14.5 0.25 0.74 0.51 93 1000.1
20260904124013 15 254 3.2 16.1 0.23 0.69 0.46 93 1000.0
20260904123519 15 227 8.0 16.1 0.23 0.66 0.46 93 1000.2
20260904123030 15 232 6.4 14.5 0.23 0.66 0.46 93 1000.3
20260904122513 15 261 4.8 14.5 0.23 0.64 0.43 92 1000.4
20260904122015 15 263 6.4 17.7 0.18 0.61 0.38 92 1000.5
20260904121528 15 223 9.7 17.7 0.18 0.58 0.36 92 1000.5
20260904121016 15 239 8.0 16.1 0.18 0.56 0.33 92 1000.6
20260904120513 15 221 4.8 16.1 0.15 0.56 0.30 92 1000.7
20260904120037 15 180 6.4 16.1 0.13 0.53 0.28 92 1000.7
20260904115515 15 250 8.0 16.1 0.13 0.51 0.28 92 1000.7